User: anonymous   Login
Location: Unspecified
(0.0000°N, 0.0000°E)
Time: 00:11:51
(UTC+00:00)
Language:

Altair - Orbit

View from above orbital plane
View from above orbital plane
View from above satellite
View from above satellite

Ground track
Ground track

The orbit data is extracted from the following two-line orbital elements,

1 00050U 60009B   16345.79798256 -.00000098  00000-0 -10709-3 0  9991
2 00050  47.2290 148.3722 0114125  97.1783 264.1997 12.20099826513834
Epoch (UTC): 10 December 2016 19:09:05
Eccentricity: 0.0114125
inclination: 47.2290°
perigee height: 1501 km
apogee height: 1683 km
right ascension of ascending node: 148.3722°
argument of perigee: 97.1783°
revolutions per day: 12.20099826
mean anomaly at epoch: 264.1997°
orbit number at epoch: 51383

The dashed part of the orbit path shows where the satellite is in the earth's shadow,  

DLR